Showing default

CALSPHERE 4(A), 1520

Orbit data source: Space-Track

CALSPHERE 4(A), 1520 is a payload satellite owned by NRL (US) in LEO that was launched on Fri, 13 Aug 1965 UTC via a THOR ABLESTAR launch vehicle from the Air Force Western Test Range (AFWTR). Payload-class satellites include a variety of spacecraft equipped with specific instruments for various scientific and technological missions. These include communications satellites like Starlink; space stations such as the ISS; scientific satellites like the Hubble; Earth observation satellites from companies like Planet Labs, Umbra, and HawkEye 360; GPS; miniature CubeSats for education and research; and military/defense satellites.

Loading next visibility...
Identifier
1520, 1965-065H
Orbit
LEO
Country
Flag of USUS
Related business
Manufacturer
NRL
Mission
Operational spacecraft
Bus & Motor
NRL 14", Unknown motor
Mass
4 kg wet, 4 kg dry
Launch date (UTC)
1965-08-13 (61 years ago)
Launch vehicle
THOR ABLESTAR
Launch site
Air Force Western Test Range (AFWTR)
Object type
Payload
Rocket body
Debris
Shape & HBR
SPHERE, 0.2 m
Radar Cross Section
Medium (>0.1 m² and <1 m²)

Expand to show TLE details & history
Last TLE update: 6 hours ago

TLE from 6 hours ago
0 CALSPHERE 4(A)
1  1520U 65065H   26238.09405117  .00000082  00000-0  14063-3 0  9995
2  1520  89.8941 121.7919 0067881 266.6725 193.0478 13.36288519972043
Epoch: 2026-08-26T02:15Z
TLE epoch observation values (Epoch: 2026-08-26T02:15:26.021Z)
Latitude
80.48924°
Longitude
-67.04742°
Altitude
1,186.271 km
Speed
7.243 km/s
True Right ascension
20h 04m 39s
True Declination
80° 26' 10"
Sunlit
Object was in daylight at epoch
Visualization orbit readout
Latitude
Unknown
Longitude
Unknown
Altitude
Unknown
Speed
Unknown
Apparent Right ascension
Unknown
Apparent Declination
Unknown
Sunlit
N/A
Visualization observer readout
Local Sidereal Time
23:19:08
Azimuth
Unknown
Elevation
Unknown
Doppler factor
Unknown
Orbital elements
Apogee altitude
1,171.106 km
Perigee altitude
1,069.307 km
Semi-major axis
7,498.343 km
Eccentricity
0.00679
Inclination
89.8941°
RAAN
121.7919°
Arg. of periapsis
266.6725°
True anomaly
192.87363°
Mean anomaly
193.0478°
Eccentric anomaly
192.96057°
Mean motion
3.34268 °/min
Orbital period
107.7 mins
BSTAR
0.00014063
Loading maneuver chart data...
Computing Atmospheric mass density...
Loading historical data...
Loading historical data...
Loading historical data...
Loading historical data...
Loading historical data...
Loading historical data...
Loading historical data...

Documentation

Showing up to 5 results
|